CZ-6A DEB

Satellite information

Favourite Embed

Satellite Type and Status

DEBRISIN ORBIT

Key statistics

Satellite CZ-6A DEB at a glance.

Uptime

971

Days in orbit

Revolutions

≈ 14.4

Per day

Orbit

SSO

Sun Synchronous Orbit

Inclination

98.6

Latest

Satellite identification and parameters

Extended collection of information and parameters for CZ-6A DEB.

Object identification

Identified? True

Debris? True

Object name: CZ-6A DEB

International designator: 2022-151Y

Object number (NORAD): 54281

Object ID (CCSDS): 54281

Country: PEOPLES REPUBLIC OF CHINA (PRC)

Current information (Y/N): Y

RCS size: SMALL

Orbital parameters

Period: 100.332 minutes

Inclination: 98.6133 deg

SMA: 7152.443 km

Apoapsis: 847.038 km

Periapsis: 701.578 km

RAAN: 209.2976 deg

Eccentricy: 0.0101686

Argument of periapsis: 316.1566 deg

Mean anomaly: 43.1579 deg

Mean motion: 14.3522889 rev/day

Mean motion (dot): 0.00000213 rev/day2

B* drag term: 0.000085859 1/REarth

Two-line elements (TLE)

Creation date: July 9, 2025, 2:22 a.m.

Reference frame: TEME

Reference center: EARTH

Epoch: July 8, 2025, 1:46 p.m. UTC

TLE line 0: 0 CZ-6A DEB

TLE line 1: 1 54281U 22151Y 25189.57387856 .00000213 00000-0 85859-4 0 9990

TLE line 2: 2 54281 98.6133 209.2976 0101686 316.1566 43.1579 14.35228890138437

Live tracking on map

Real-time ground track for satellite CZ-6A DEB.

In-orbit conjunctions

A list of the most updated potential collisions computed for object CZ-6A DEB.

Target Orbit TCA Probability of collision Miss distance Type
FENGYUN 1C DEB SSO 2025-01-08 05:05:54 0.0001430017 384.0 (m) DEBRIS
NOAA 16 DEB SSO 2024-09-26 15:42:01 0.0002629579 713.0 (m) DEBRIS

Associated space launch

Chinese satellite reported for atmospheric/ocean/environmental/spatial parameter research purposes, details TBD.

CZ-6A DEB was lifted into orbit during the mission ‘Long March 6A | Yunhai 3’, on board a Long March 6A space rocket.

The launch took place on Nov. 11, 2022, 10:52 p.m. from Launch Complex 9A.

For more information about the launch, click the button.

Launch to space Long March 6A | Yunhai 3
Long March 6A | Yunhai 3

Agency: N/A

Status: Launch Successful

Launch date: Nov. 11, 2022, 10:52 p.m. UTC

Rocket: Long March 6A

Launch pad: Launch Complex 9A

Location: Taiyuan Satellite Launch Center, People's Republic of China

...

Latest news about this satellite

There are no fresh news available about this satellite. Check back as we update our databases every day.


Newsletter sign-up

Weekly statistics, charts and insights to help you stay on top of the space industry.